Home   Weather   Oceanside   Past weeks

Flag for USA Past Weather in Oceanside, California, USA — Yesterday and Last 2 Weeks

Now
62 °F

Mostly cloudy.


Feels Like: 62 °F
Forecast: 58 / 71 °F
Wind: 5 mph from Southwest

Location: Oceanside Weather Reporting Station

Current Time: Apr 24, 2017 at 10:19:10 pm

Latest Report: Apr 24, 2017 at 8:52 pm


Visibility: 9 mi

Pressure: 29.88 "Hg

Humidity: 78%

Dew Point: 55 °F

Location of OceansideLocation

Past Weather in Oceanside — Graph

°F

Oceanside Temperature Yesterday

Maximum temperature yesterday: 74 °F (at 12:52 pm)
Minimum temperature yesterday: 55 °F (at 12:52 am)
Average temperature yesterday: 62 °F

High & Low Weather Summary for the Past Weeks

 TemperatureHumidityPressure
High81 °F (Apr 21, 3:52 pm)100% (Apr 10, 10:52 pm)30.13 "Hg (Apr 10, 10:52 pm)
Low42 °F (Apr 10, 5:52 am)35% (Apr 21, 3:52 pm)29.83 "Hg (Apr 21, 3:52 pm)
Average61 °F80%29.99 "Hg
* Reported Apr 9 8:52 pm — Apr 24 8:52 pm, Oceanside, Weather by CustomWeather, © 2017

Note: Actual official high and low records may vary slightly from our data, if they occured in-between our weather recording intervals... More about our weather records

Advertising

Oceanside Weather History for the Previous 24 Hours

Scroll right to see more
 ConditionsComfort  
Time TempWeatherWind HumidityBarometerVisibility
8:52 pm
Mon, Apr 24
62 °FMostly cloudy.5 mph78%29.88 "Hg9 mi
7:52 pm63 °FMostly cloudy.8 mph81%29.88 "Hg9 mi
6:52 pm64 °FOvercast.9 mph78%29.88 "Hg8 mi
5:52 pm65 °FOvercast.8 mph78%29.88 "Hg8 mi
4:52 pm67 °FOvercast.8 mph71%29.88 "Hg8 mi
4:03 pm68 °FPartly sunny.13 mph68%29.90 "Hg8 mi
3:52 pm70 °FScattered clouds.10 mph64%29.90 "Hg8 mi
2:52 pm71 °FPassing clouds.10 mph59%29.91 "Hg9 mi
1:52 pm69 °FPassing clouds.10 mph61%29.93 "Hg9 mi
12:52 pm70 °FPassing clouds.8 mph59%29.94 "Hg9 mi
11:52 am69 °FSunny.N/A59%29.95 "Hg9 mi
10:52 am68 °FOvercast.14 mph61%29.96 "Hg9 mi
9:52 am67 °FOvercast.9 mph68%29.94 "Hg7 mi
8:52 am65 °FMostly cloudy.9 mph70%29.92 "Hg7 mi
8:13 am65 °FOvercast.7 mph70%29.91 "Hg8 mi
7:52 am64 °FOvercast.7 mph70%29.91 "Hg8 mi
6:52 am62 °FOvercast.6 mph78%29.89 "Hg6 mi
5:52 am62 °FOvercast.6 mph78%29.88 "Hg9 mi
4:52 am62 °FOvercast.6 mph75%29.86 "Hg9 mi
3:52 am62 °FOvercast.8 mph75%29.85 "Hg9 mi
2:52 am63 °FOvercast.6 mph75%29.85 "Hg8 mi
1:52 am63 °FOvercast.6 mph75%29.85 "Hg9 mi
12:52 am63 °FOvercast.5 mph75%29.88 "Hg9 mi
11:52 pm
Sun, Apr 23
63 °FOvercast.5 mph78%29.88 "Hg9 mi
10:52 pm63 °FOvercast.6 mph78%29.88 "Hg9 mi
Weather by CustomWeather, © 2017

See weather overviewHow to use our weather pages